Weather History for Harrisburg, PA

Change the Weather History Date:

Monday, March 31, 2014

  Actual Average Record
Temperature  
Mean Temperature 52 °F -  
Max Temperature 64 °F 55 °F 85 °F (1998)
Min Temperature 41 °F 36 °F 16 °F (1923)
Degree Days  
Heating Degree Days 12    
Growing Degree Days 2 (Base 50)    
Moisture  
Dew Point 27 °F    
Average Humidity 43    
Maximum Humidity 65    
Minimum Humidity 20    
Precipitation  
Precipitation 0.00 in - - ()
Sea Level Pressure  
Sea Level Pressure 30.01 in    
Wind  
Wind Speed 13 mph (NNW)    
Max Wind Speed 20 mph    
Max Gust Speed 30 mph    
Visibility 10 miles    
Events Rain    
Averages and records for this station are not official NWS values.
T = Trace of Precipitation, MM = Missing Value Source: NWS Daily Summary

Daily Weather History Graph

Daily Weather History Graph

Search for Another Location

Airport:

Trip Planner

Search our weather history database for the weather conditions in past years. The results will help you decide how hot, cold, wet, or windy it might be!

Date:

Astronomy

Mar. 31, 2014 Rise Set
Actual Time 6:52 AM EDT 7:30 PM EDT
Civil Twilight 6:25 AM EDT 7:58 PM EDT
Nautical Twilight 5:53 AM EDT 8:30 PM EDT
Astronomical Twilight 5:20 AM EDT 9:03 PM EDT
Moon 7:14 AM EDT (3/31) 8:47 PM EDT (3/31)
Length of Visible Light 13h 32m
Length of Day
12h 37m
New Moon, 1% of the Moon is Illuminated
Mar 31
New Moon
Apr 7
First Quarter
Apr 15
Full
Apr 22
Last Quarter
Apr 29
New

Hourly Weather History & Observations

Time (EDT) Temp. Windchill Dew Point Humidity Pressure Visibility Wind Dir Wind Speed Gust Speed Precip Events Conditions
12:56 AM 41.0 °F 32.5 °F 30.0 °F 65% 29.87 in 10.0 mi North 17.3 mph 26.5 mph 0.00 in Rain Light Rain
1:56 AM 42.1 °F 33.9 °F 30.0 °F 62% 29.87 in 10.0 mi NNW 17.3 mph 29.9 mph 0.00 in   Scattered Clouds
2:56 AM 42.1 °F 34.5 °F 30.0 °F 62% 29.87 in 10.0 mi NNW 15.0 mph 23.0 mph N/A   Clear
3:56 AM 42.1 °F 35.7 °F 28.9 °F 60% 29.91 in 10.0 mi North 11.5 mph 17.3 mph N/A   Clear
4:56 AM 41.0 °F 35.8 °F 28.9 °F 62% 29.94 in 10.0 mi North 8.1 mph - N/A   Partly Cloudy
5:56 AM 41.0 °F 31.9 °F 28.9 °F 62% 29.94 in 10.0 mi NNW 19.6 mph 27.6 mph N/A   Clear
6:56 AM 41.0 °F 34.3 °F 28.0 °F 60% 29.97 in 10.0 mi NNW 11.5 mph 23.0 mph N/A   Partly Cloudy
7:56 AM 42.1 °F 35.2 °F 28.0 °F 58% 29.99 in 10.0 mi NNW 12.7 mph 23.0 mph N/A   Partly Cloudy
8:56 AM 44.1 °F 38.6 °F 28.9 °F 55% 30.01 in 10.0 mi NNW 10.4 mph - N/A   Partly Cloudy
9:56 AM 46.0 °F 39.9 °F 28.9 °F 51% 30.04 in 10.0 mi North 13.8 mph 21.9 mph N/A   Clear
10:56 AM 48.0 °F - 30.0 °F 50% 30.05 in 10.0 mi NNW 15.0 mph 23.0 mph N/A   Clear
11:56 AM 51.1 °F - 28.9 °F 43% 30.06 in 10.0 mi NNW 17.3 mph 25.3 mph N/A   Clear
12:56 PM 54.0 °F - 28.9 °F 38% 30.06 in 10.0 mi NNW 17.3 mph 24.2 mph N/A   Clear
1:56 PM 57.0 °F - 26.1 °F 30% 30.04 in 10.0 mi NNW 15.0 mph 23.0 mph N/A   Clear
2:56 PM 60.1 °F - 28.0 °F 30% 30.04 in 10.0 mi NW 11.5 mph - N/A   Clear
3:56 PM 63.0 °F - 26.1 °F 25% 30.02 in 10.0 mi NNW 9.2 mph - N/A   Clear
4:56 PM 63.0 °F - 24.1 °F 23% 30.02 in 10.0 mi NNW 5.8 mph - N/A   Clear
5:56 PM 64.9 °F - 23.0 °F 20% 30.02 in 10.0 mi NW 9.2 mph - N/A   Clear
6:56 PM 63.0 °F - 21.9 °F 21% 30.04 in 10.0 mi North 10.4 mph 20.7 mph N/A   Clear
7:56 PM 60.1 °F - 23.0 °F 24% 30.05 in 10.0 mi NNW 9.2 mph - N/A   Clear
8:56 PM 57.0 °F - 24.1 °F 28% 30.07 in 10.0 mi North 10.4 mph - N/A   Clear
9:56 PM 55.0 °F - 24.1 °F 30% 30.10 in 10.0 mi North 3.5 mph - N/A   Clear
10:56 PM 53.1 °F - 23.0 °F 31% 30.12 in 10.0 mi NNE 8.1 mph - N/A   Clear
11:56 PM 50.0 °F - 26.1 °F 39% 30.14 in 10.0 mi North 8.1 mph - N/A   Clear